FW6250 Weather Reports


time (UTC)temp
F
wind
direction
speed
knots
gust
knots
rain 1hr
in
rain 24hr
in
rain mn
in
humidity
%
barometer
mb
20260510103533 0 0.0 0.0 0.00 0.19 0.00 1011.3
20260510103043 0 0.0 0.0 0.00 0.19 0.00 1011.4
20260510102533 0 0.0 0.0 0.00 0.19 0.00 1011.3
20260510102033 0 0.0 0.0 0.00 0.19 0.00 1011.2
20260510101545 0 0.0 0.0 0.00 0.19 0.00 1011.1
20260510101032 0 0.0 0.0 0.00 0.19 0.00 1011.0
20260510100534 0 0.0 0.0 0.00 0.19 0.00 1010.9
20260510100043 0 0.0 0.0 0.00 0.19 0.00 1010.7
20260510095532 0 0.0 0.0 0.00 0.19 0.00 1010.6
20260510095031 0 0.0 0.0 0.00 0.19 0.00 1010.5
20260510094540 0 0.0 0.0 0.00 0.19 0.00 1010.5
20260510094032 0 0.0 0.0 0.00 0.19 0.00 1010.5
20260510093532 0 0.0 0.0 0.00 0.19 0.00 1010.2
20260510093043 0 0.0 0.0 0.00 0.19 0.00 1009.9
20260510092533 0 0.0 0.0 0.00 0.19 0.00 1010.0
20260510092032 0 0.0 0.0 0.00 0.19 0.00 1010.0
20260510091539 0 0.0 0.0 0.00 0.19 0.00 1010.0
20260510091032 0 0.0 0.0 0.00 0.19 0.00 1010.0
20260510090532 0 0.0 0.0 0.00 0.19 0.00 1010.0
20260510090044 0 0.0 0.0 0.00 0.19 0.00 1010.0
20260510085533 0 0.0 0.0 0.00 0.21 0.00 1009.9
20260510085034 0 0.0 0.0 0.00 0.21 0.00 1009.8
20260510084543 0 0.0 0.0 0.00 0.21 0.00 1009.6
20260510084032 0 0.0 0.0 0.00 0.21 0.00 1009.6
20260510083532 0 0.0 0.0 0.00 0.21 0.00 1009.8
20260510083045 0 0.0 0.0 0.00 0.21 0.00 1009.8
20260510082532 0 0.0 0.0 0.00 0.21 0.00 1009.7
20260510082033 47 0.0 0.0 0.00 0.21 0.00 93 1009.8
20260510081543 47 0.9 1.7 0.00 0.21 0.00 93 1009.4
20260510081032 47 0 0.9 3.5 0.00 0.21 0.00 93 1009.7
20260510080534 47 56 1.7 3.5 0.00 0.21 0.00 93 1009.7
20260510080039 47 72 0.0 1.7 0.00 0.21 0.00 94 1009.7
20260510075532 47 124 0.0 1.7 0.00 0.24 0.00 93 1009.7
20260510075032 47 0 0.0 0.9 0.00 0.24 0.00 93 1009.4
20260510074541 47 124 0.0 1.7 0.00 0.24 0.00 93 1009.6
20260510074033 47 0 0.0 1.7 0.00 0.24 0.00 92 1009.7
20260510073534 47 0 0.0 1.7 0.00 0.24 0.00 92 1009.7
20260510073045 48 0 0.0 1.7 0.00 0.24 0.00 92 1009.9
20260510072532 48 124 0.0 1.7 0.00 0.24 0.00 91 1010.0
20260510072032 48 0 0.0 1.7 0.00 0.24 0.00 91 1010.0
20260510071543 48 0 0.0 1.7 0.00 0.24 0.00 91 1010.4
20260510071032 49 0 0.0 0.0 0.00 0.24 0.00 90 1010.4
20260510070532 49 0 0.0 0.0 0.00 0.24 0.00 90 1010.5
20260510070042 49 0 0.0 0.9 0.00 0.24 0.00 90 1010.5
20260510065533 49 0 0.0 1.7 0.00 0.24 0.00 90 1010.6
20260510065032 49 0 0.0 1.7 0.00 0.24 0.00 89 1010.7
20260510064544 50 0 0.0 1.7 0.00 0.24 0.00 89 1010.6
20260510064032 50 188 0.0 2.6 0.00 0.24 0.00 88 1010.7
20260510063532 50 264 1.7 5.2 0.00 0.24 0.00 88 1010.7
20260510063040 50 312 0.9 5.2 0.00 0.24 0.00 88 1010.8
20260510062533 50 240 1.7 7.0 0.00 0.24 0.00 88 1010.7
20260510062032 49 261 1.7 7.0 0.00 0.24 0.00 89 1010.7
20260510061543 49 51 1.7 7.0 0.00 0.24 0.00 90 1010.6
20260510061032 49 269 0.9 4.3 0.00 0.24 0.00 92 1010.6
20260510060532 48 323 0.9 4.3 0.00 0.24 0.00 93 1010.5
20260510060050 47 273 0.9 4.3 0.00 0.24 0.00 95 1010.4
20260510055532 46 267 0.9 4.3 0.00 0.24 0.00 95 1010.4
20260510055032 46 181 0.0 1.7 0.00 0.24 0.00 94 1010.6
20260510054539 46 0 0.0 1.7 0.00 0.24 0.00 94 1010.3
20260510054032 46 85 0.0 1.7 0.00 0.24 0.00 93 1010.2
20260510053533 46 93 0.0 1.7 0.00 0.24 0.00 93 1010.1
20260510053043 46 0 0.0 1.7 0.00 0.24 0.00 93 1010.0
20260510052532 46 0 0.0 0.9 0.00 0.24 0.00 92 1010.0
20260510052032 46 0 0.0 0.9 0.00 0.24 0.00 92 1010.3
20260510051604 47 0 0.0 1.7 0.00 0.24 0.00 92 1010.2
20260510051031 47 82 0.9 1.7 0.00 0.24 0.00 92 1010.3
20260510050532 47 108 0.0 1.7 0.00 0.24 0.00 92 1010.1
20260510050043 47 0 0.0 0.9 0.00 0.24 0.00 92 1010.2
20260510045531 47 0 0.0 1.7 0.00 0.24 0.00 92 1010.2
20260510045029 47 0 0.0 1.7 0.00 0.24 0.00 92 1010.2
20260510044542 48 0 0.0 1.7 0.00 0.24 0.00 91 1010.3
20260510044035 48 0 0.0 0.9 0.00 0.24 0.00 91 1010.3
20260510043532 48 0 0.0 0.9 0.00 0.24 0.00 91 1010.0
20260510043107 48 108 0.0 1.7 0.00 0.24 0.00 90 1010.0
20260510042532 48 0 0.0 1.7 0.00 0.24 0.00 90 1009.9
20260510042030 48 0 0.0 1.7 0.00 0.24 0.00 90 1009.9
20260510041550 48 0 0.9 1.7 0.00 0.24 0.00 89 1009.8
20260510041032 48 145 0.0 0.9 0.00 0.24 0.00 89 1009.9
20260510040532 49 145 0.0 2.6 0.00 0.24 0.00 89 1009.8
20260510040044 49 0 0.9 2.6 0.00 0.24 0.00 88 1009.9
20260510035532 49 0 0.0 2.6 0.00 0.24 0.24 87 1009.7
20260510035034 48 0 0.0 2.6 0.00 0.24 0.24 88 1009.7
20260510034545 48 0 0.0 1.7 0.00 0.24 0.24 88 1009.7
20260510034032 48 0 0.9 1.7 0.00 0.24 0.24 88 1009.7
20260510033533 48 339 0.9 1.7 0.00 0.24 0.24 88 1009.9
20260510033050 48 0 0.0 0.9 0.00 0.24 0.24 88 1009.7
20260510032532 48 279 0.0 1.7 0.00 0.24 0.24 88 1009.7
20260510032032 48 276 0.0 1.7 0.00 0.24 0.24 88 1009.7
20260510031615 48 288 0.0 1.7 0.00 0.24 0.24 88 1009.7
20260510031032 48 300 0.9 2.6 0.00 0.24 0.24 89 1009.8
20260510030532 48 290 0.9 2.6 0.00 0.24 0.24 90 1009.7
20260510030045 47 289 0.9 2.6 0.00 0.24 0.24 90 1009.5
20260510025533 47 294 0.9 1.7 0.00 0.24 0.24 90 1009.5
20260510025034 48 297 0.9 1.7 0.00 0.24 0.24 90 1009.5
20260510024545 48 0 0.0 1.7 0.00 0.24 0.24 90 1009.5
20260510024032 48 0 0.0 1.7 0.00 0.24 0.24 89 1009.4
20260510023532 48 0 0.0 1.7 0.00 0.24 0.24 89 1009.5
20260510023047 48 0 0.0 1.7 0.00 0.24 0.24 89 1009.4
20260510022532 48 0 0.0 1.7 0.00 0.24 0.24 90 1009.6
20260510022032 48 304 0.0 1.7 0.00 0.24 0.24 89 1009.6
20260510021543 48 0 0.0 1.7 0.00 0.24 0.24 90 1009.5
20260510021031 48 0 0.0 1.7 0.00 0.24 0.24 90 1009.6
20260510020531 48 0 0.0 1.7 0.00 0.24 0.24 90 1009.4
20260510020043 48 0 0.0 1.7 0.00 0.24 0.24 90 1009.4
20260510015532 48 0 0.0 0.9 0.00 0.24 0.24 91 1009.4
20260510015032 48 0 0.0 0.9 0.00 0.24 0.24 91 1009.4
20260510014542 48 0 0.0 1.7 0.00 0.24 0.24 91 1009.4
20260510014030 49 0 0.0 1.7 0.00 0.24 0.24 90 1009.5
20260510013530 49 0 0.0 1.7 0.00 0.24 0.24 90 1009.5
20260510013042 49 313 0.0 1.7 0.00 0.24 0.24 90 1009.8
20260510012532 49 313 0.0 1.7 0.00 0.24 0.24 90 1009.7
20260510012032 48 0 0.0 1.7 0.00 0.24 0.24 90 1009.8
20260510011553 48 0 0.0 1.7 0.00 0.24 0.24 91 1009.7
20260510011031 49 0 0.0 1.7 0.00 0.24 0.24 90 1009.6
20260510010532 49 0 0.0 1.7 0.00 0.24 0.24 91 1009.5
20260510010055 49 0 0.0 1.7 0.00 0.24 0.24 90 1009.4
20260510005533 49 0 0.0 1.7 0.00 0.24 0.24 90 1009.6
20260510005029 49 0 0.0 0.0 0.00 0.24 0.24 90 1009.4
20260510004542 49 0 0.0 1.7 0.00 0.24 0.24 90 1009.2
20260510004032 49 0 0.0 1.7 0.00 0.24 0.24 89 1009.3
20260510003532 49 0 0.0 1.7 0.00 0.24 0.24 88 1009.3
20260510003041 49 0 0.0 1.7 0.00 0.24 0.24 89 1009.4
20260510002532 49 0 0.0 1.7 0.00 0.24 0.24 88 1009.4
20260510002032 50 0 0.0 2.6 0.00 0.24 0.24 87 1009.2
20260510001540 49 0 0.9 2.6 0.00 0.24 0.24 86 1009.0
20260510001032 49 281 0.0 1.7 0.00 0.24 0.24 88 1008.9
20260510000532 49 292 0.0 1.7 0.00 0.24 0.24 86 1008.9
20260510000048 49 0 0.0 1.7 0.00 0.24 0.24 87 1008.8
20260509235533 49 292 0.0 1.7 0.00 0.24 0.24 87 1008.8
20260509235033 49 0 0.0 1.7 0.00 0.24 0.24 87 1008.7
20260509234543 50 292 0.0 1.7 0.00 0.24 0.24 87 1008.6
20260509234031 50 0 0.0 1.7 0.00 0.24 0.24 86 1008.5
20260509233528 50 0 0.0 1.7 0.00 0.24 0.24 85 1008.5
20260509233117 50 0 0.9 1.7 0.00 0.24 0.24 84 1008.3
20260509232532 50 269 0.0 1.7 0.00 0.24 0.24 85 1008.2
20260509232032 50 0 0.0 1.7 0.00 0.24 0.24 85 1008.1
20260509231552 51 286 0.0 1.7 0.00 0.24 0.24 86 1008.2
20260509231032 51 276 0.0 1.7 0.00 0.24 0.24 85 1008.1
20260509230531 51 0 0.0 1.7 0.00 0.24 0.24 85 1008.2
20260509230045 51 258 0.0 1.7 0.00 0.24 0.24 84 1008.1
20260509225530 51 313 0.9 1.7 0.00 0.24 0.24 83 1008.1
20260509225029 51 272 0.9 1.7 0.00 0.24 0.24 84 1008.2
20260509224543 51 310 0.0 1.7 0.00 0.24 0.24 85 1008.2
20260509224029 51 302 0.0 1.7 0.00 0.24 0.24 86 1008.2
20260509223532 51 279 0.0 1.7 0.00 0.24 0.24 85 1008.1
20260509223039 51 254 0.9 1.7 0.00 0.24 0.24 85 1008.1
20260509222531 51 0 0.9 1.7 0.00 0.24 0.24 84 1008.2
20260509222035 51 294 0.9 2.6 0.00 0.24 0.24 87 1008.5
20260509221544 50 304 0.0 3.5 0.00 0.24 0.24 86 1008.5
20260509221032 50 319 0.9 3.5 0.00 0.24 0.24 88 1008.6
20260509220530 50 336 0.0 1.7 0.00 0.24 0.24 89 1008.7
20260509220048 50 267 0.9 2.6 0.00 0.24 0.24 90 1008.8
20260509215531 49 281 0.9 2.6 0.00 0.24 0.24 88 1008.6
20260509215033 49 251 0.9 3.5 0.00 0.24 0.24 90 1008.8
20260509214543 49 278 0.9 3.5 0.00 0.24 0.24 90 1008.7
20260509214031 49 147 0.0 1.7 0.00 0.24 0.24 91 1008.7
20260509213531 49 294 0.0 1.7 0.00 0.24 0.24 92 1008.7
20260509213058 49 0 0.0 1.7 0.00 0.24 0.24 92 1008.6
20260509212530 49 5 0.0 1.7 0.00 0.24 0.24 92 1008.7
20260509212032 49 0 0.0 1.7 0.00 0.24 0.24 93 1008.7
20260509211606 48 0 0.0 1.7 0.00 0.24 0.24 92 1008.7
20260509211032 48 0 0.0 1.7 0.00 0.24 0.24 92 1008.6
20260509210534 48 293 0.0 1.7 0.01 0.24 0.24 91 1008.5
20260509210051 48 0 0.0 2.6 0.01 0.24 0.24 91 1008.6
20260509205531 48 323 0.9 2.6 0.01 0.24 0.24 91 1008.7
20260509205031 48 17 0.9 2.6 0.01 0.24 0.24 91 1008.9
20260509204557 48 0 0.0 3.5 0.01 0.24 0.24 91 1008.8
20260509204032 48 286 0.9 4.3 0.01 0.24 0.24 91 1009.0
20260509203532 48 340 0.9 4.3 0.01 0.24 0.24 89 1008.9
20260509203049 48 298 0.0 3.5 0.01 0.24 0.24 90 1009.1
20260509202531 48 281 0.9 3.5 0.01 0.24 0.24 90 1009.0
20260509202030 48 276 1.7 3.5 0.02 0.24 0.24 90 1009.1
20260509201544 48 289 0.9 3.5 0.02 0.24 0.24 93 1009.1
20260509201031 48 0 0.9 3.5 0.02 0.24 0.24 93 1009.3
20260509200531 48 271 0.9 2.6 0.01 0.23 0.23 92 1009.4
20260509200040 48 304 0.9 2.6 0.02 0.23 0.23 92 1009.3
20260509195532 48 0 0.9 2.6 0.02 0.23 0.23 93 1009.4
20260509195034 48 197 0.9 2.6 0.02 0.23 0.23 92 1009.5
20260509194546 48 288 0.0 2.6 0.02 0.23 0.23 92 1009.5
20260509194032 48 293 0.9 3.5 0.02 0.23 0.23 92 1009.5
20260509193530 48 234 0.9 4.3 0.02 0.23 0.23 93 1009.6
20260509193039 48 275 0.9 4.3 0.02 0.23 0.23 93 1009.7
20260509192531 48 178 0.0 2.6 0.02 0.23 0.23 93 1009.7
20260509192029 48 304 0.0 1.7 0.02 0.22 0.22 93 1009.7
20260509191543 47 289 0.0 1.7 0.02 0.22 0.22 93 1009.7
20260509191032 47 313 0.9 1.7 0.02 0.22 0.22 93 1009.7
20260509190531 47 304 0.0 1.7 0.02 0.22 0.22 93 1009.9
20260509190048 47 286 0.0 1.7 0.01 0.21 0.21 92 1009.7
20260509185531 48 242 0.0 1.7 0.02 0.21 0.21 92 1009.7
20260509185029 48 307 0.0 1.7 0.02 0.21 0.21 92 1009.8
20260509184540 48 0 0.0 1.7 0.02 0.21 0.21 92 1009.6
20260509184032 48 309 0.0 3.5 0.03 0.21 0.21 93 1009.8
20260509183533 48 303 0.9 3.5 0.03 0.21 0.21 92 1009.8
20260509183038 48 301 0.9 2.6 0.03 0.21 0.21 93 1009.9
20260509182531 48 0 0.0 2.6 0.04 0.21 0.21 93 1009.8
20260509182031 48 286 0.0 2.6 0.03 0.20 0.20 92 1009.9
20260509181539 48 227 0.0 2.6 0.03 0.20 0.20 92 1009.9
20260509181032 48 278 0.9 1.7 0.04 0.20 0.20 92 1009.9
20260509180531 48 218 0.0 1.7 0.04 0.20 0.20 93 1009.9
20260509180047 48 300 0.0 1.7 0.04 0.20 0.20 93 1009.9
20260509175531 48 259 0.0 1.7 0.03 0.21 0.19 93 1009.9
20260509175033 48 301 0.0 1.7 0.04 0.21 0.19 93 1009.7
20260509174550 48 301 0.0 1.7 0.04 0.21 0.19 93 1009.6
20260509174033 48 0 0.0 1.7 0.03 0.20 0.18 93 1009.6
20260509173530 48 83 0.0 1.7 0.03 0.20 0.18 93 1009.5
20260509173039 48 99 0.0 1.7 0.03 0.20 0.18 93 1009.4
20260509172534 48 0 0.0 1.7 0.03 0.19 0.17 94 1009.5
20260509172031 48 103 0.0 1.7 0.03 0.19 0.17 94 1009.3
20260509171548 47 300 0.0 1.7 0.03 0.19 0.17 94 1009.1
20260509171031 47 0 0.0 1.7 0.02 0.18 0.16 93 1009.1
20260509170531 47 0 0.0 1.7 0.03 0.18 0.16 93 1009.3
20260509170043 47 0 0.0 1.7 0.03 0.18 0.16 93 1009.4
20260509165531 47 290 0.0 1.7 0.04 0.19 0.16 93 1009.4
20260509165031 47 0 0.9 1.7 0.04 0.18 0.15 92 1009.5
20260509164543 47 128 0.0 2.6 0.05 0.18 0.15 92 1009.5
20260509164031 47 0 0.0 2.6 0.05 0.18 0.15 94 1009.4
20260509163533 47 0 0.0 1.7 0.06 0.18 0.15 94 1009.6
20260509163054 47 0 0.0 1.7 0.07 0.18 0.15 94 1009.6
20260509162528 47 57 0.0 2.6 0.06 0.17 0.14 93 1009.7
20260509162032 47 0 0.9 2.6 0.07 0.17 0.14 92 1009.7
20260509161542 47 0 0.0 1.7 0.08 0.17 0.14 93 1009.7
20260509161033 47 0 0.0 1.7 0.07 0.16 0.13 93 1009.8
20260509160531 47 0 0.0 1.7 0.07 0.16 0.13 93 1009.9
20260509160040 46 146 0.0 1.7 0.08 0.16 0.13 94 1009.8
20260509155531 46 0 0.0 1.7 0.06 0.14 0.11 94 1009.8
20260509155031 46 128 0.0 1.7 0.06 0.14 0.11 93 1009.9
20260509154543 46 0 0.0 1.7 0.05 0.13 0.10 94 1010.0
20260509154031 46 104 0.0 1.7 0.05 0.13 0.10 93 1009.9
20260509153531 46 49 0.9 1.7 0.04 0.12 0.09 94 1009.8
20260509153044 46 0 0.0 1.7 0.03 0.11 0.08 95 1009.9
20260509152531 46 0 0.0 1.7 0.02 0.10 0.07 95 1009.8
20260509152033 46 195 0.0 1.7 0.02 0.10 0.07 95 1009.9
20260509151545 46 194 0.0 0.9 0.01 0.09 0.06 95 1010.0
20260509151031 46 0 0.0 1.7 0.01 0.09 0.06 95 1010.1
20260509150531 46 0 0.0 1.7 0.01 0.09 0.06 95 1010.0
20260509150041 45 352 0.0 1.7 0.00 0.08 0.05 94 1010.4
20260509145531 45 0 0.0 0.9 0.00 0.08 0.05 94 1010.6
20260509145031 0 0.0 0.0 0.00 0.08 0.05 1011.0
20260509144546 0 0.0 0.0 0.00 0.08 0.05 1011.0
20260509144031 0 0.0 0.0 0.00 0.08 0.05 1011.3
20260509143531 0 0.0 0.0 0.00 0.08 0.05 1011.3
20260509143047 0 0.0 0.0 0.00 0.08 0.05 1011.4
20260509142532 0 0.0 0.0 0.00 0.08 0.05 1011.6
20260509142030 0 0.0 0.0 0.00 0.08 0.05 1011.5
20260509141545 0 0.0 0.0 0.00 0.08 0.05 1011.5
20260509141031 0 0.0 0.0 0.00 0.08 0.05 1011.5
20260509140529 0 0.0 0.0 0.00 0.08 0.05 1011.5
20260509140049 0 0.0 0.0 0.00 0.08 0.05 1011.6
20260509135531 0 0.0 0.0 0.00 0.08 0.05 1011.5
20260509135031 0 0.0 0.0 0.00 0.08 0.05 1011.5
20260509134548 0 0.0 0.0 0.00 0.08 0.05 1011.4
20260509134032 0 0.0 0.0 0.00 0.08 0.05 1011.5
20260509133532 0 0.0 0.0 0.00 0.08 0.05 1011.4
20260509133053 0 0.0 0.0 0.00 0.08 0.05 1011.5
20260509132529 0 0.0 0.0 0.00 0.08 0.05 1011.5
20260509132031 0 0.0 0.0 0.00 0.08 0.05 1011.4
20260509131540 0 0.0 0.0 0.00 0.08 0.05 1011.5
20260509131030 0 0.0 0.0 0.00 0.08 0.05 1011.6
20260509130529 0 0.0 0.0 0.00 0.08 0.05 1011.5
20260509130044 0 0.0 0.0 0.00 0.08 0.05 1011.5
20260509125532 0 0.0 0.0 0.00 0.08 0.05 1011.6
20260509125031 0 0.0 0.0 0.00 0.08 0.05 1011.6
20260509124543 0 0.0 0.0 0.00 0.08 0.05 1011.6
20260509124031 0 0.0 0.0 0.00 0.08 0.05 1011.6
20260509123528 0 0.0 0.0 0.00 0.08 0.05 1011.7
20260509123040 0 0.0 0.0 0.00 0.08 0.05 1011.8
20260509122528 0 0.0 0.0 0.00 0.08 0.05 1011.9
20260509122030 0 0.0 0.0 0.00 0.08 0.05 1011.9
20260509121541 0 0.0 0.0 0.00 0.08 0.05 1012.0
20260509121032 0 0.0 0.0 0.00 0.08 0.05 1012.0
20260509120528 0 0.0 0.0 0.00 0.08 0.05 1011.9
20260509120046 0 0.0 0.0 0.00 0.08 0.05 1012.1
20260509115530 0 0.0 0.0 0.00 0.08 0.05 1012.2
20260509115031 0 0.0 0.0 0.00 0.08 0.05 1012.2
20260509114554 0 0.0 0.0 0.00 0.08 0.05 1012.2
20260509114034 0 0.0 0.0 0.00 0.08 0.05 1012.2
20260509113531 0 0.0 0.0 0.00 0.08 0.05 1012.1
20260509113046 0 0.0 0.0 0.00 0.08 0.05 1012.0
20260509112531 0 0.0 0.0 0.00 0.08 0.05 1011.9
20260509112031 0 0.0 0.0 0.00 0.08 0.05 1012.0
20260509111542 0 0.0 0.0 0.00 0.08 0.05 1011.9
20260509111031 0 0.0 0.0 0.00 0.08 0.05 1012.1
20260509110530 0 0.0 0.0 0.00 0.08 0.05 1012.0
20260509110053 0 0.0 0.0 0.00 0.08 0.05 1012.2
20260509105533 0 0.0 0.0 0.00 0.08 0.05 1012.1
20260509105031 0 0.0 0.0 0.00 0.08 0.05 1012.1
20260509104546 0 0.0 0.0 0.00 0.08 0.05 1012.1
20260509104030 0 0.0 0.0 0.00 0.08 0.05 1012.0